INSPIRE-SAT 7 (56211 NORAD) Tracking and Keplerian Element Data

This shows tracking and keplerian element data for the satellite.

Feedback or suggestion? Click here.




ElementValue
Catalog56211
NameINSPIRE-SAT 7
Epoch Orbit2091
Epoch Day238.5220022
Epoch Year2023
RAAN132.9661
Inclination97.3981
Eccentricity0.0015994
Argument of Perigee119.8901
Mean Anonmoly240.393
Mean Motion15.27346532
Decay Rate0.00019609
L11 56211U 23054AK 23238.52200220 .00019609 00000+0 73116-3 0 9995
L22 56211 97.3981 132.9661 0015994 119.8901 240.3930 15.27346532 20910



Live tracking and technical data element details for INSPIRE-SAT 7 (NORAD 56211). INSPIRE-SAT 7 can be tracked NOW for your location showing map with azimuth and elevation plus other details from your city location.







IsCatalogInMostPopularTable: catalog: 56211, numindb: 10
Update: records affected: 1



GetName: 56211 INSPIRE-SAT 7

Hit Count: updated at: Thu, 28 Sep 2023 05:27:45 GMT